TimeEST,TemperatureF,Dew PointF,Humidity,Sea Level PressureIn,VisibilityMPH,Wind Direction,Wind SpeedMPH,Gust SpeedMPH,PrecipitationIn,Events,Conditions,WindDirDegrees,DateUTC
12:15 AM,31.6,30.0,94,29.95,4.0,Calm,Calm,-,N/A,Snow,Light Snow,0,2014-01-16 05:15:00
12:35 AM,31.6,29.8,93,29.96,7.0,Calm,Calm,-,N/A,,Overcast,0,2014-01-16 05:35:00
12:55 AM,31.1,29.1,92,29.94,7.0,NNE,3.5,-,N/A,,Overcast,30,2014-01-16 05:55:00
1:15 AM,30.9,28.9,92,29.95,7.0,Calm,Calm,-,N/A,Snow,Light Snow,0,2014-01-16 06:15:00
1:35 AM,30.7,28.2,90,29.96,7.0,Calm,Calm,-,N/A,,Overcast,0,2014-01-16 06:35:00
1:55 AM,30.7,28.4,91,29.95,10.0,Calm,Calm,-,N/A,,Overcast,0,2014-01-16 06:55:00
2:15 AM,31.1,28.4,90,29.96,7.0,North,3.5,-,N/A,,Overcast,360,2014-01-16 07:15:00
2:35 AM,30.7,23.7,75,29.96,7.0,NNW,5.8,-,N/A,Snow,Light Snow,330,2014-01-16 07:35:00
2:55 AM,30.7,24.6,78,29.95,10.0,Calm,Calm,-,N/A,,Overcast,0,2014-01-16 07:55:00
3:15 AM,30.4,25.7,83,29.95,10.0,NE,3.5,-,N/A,,Overcast,50,2014-01-16 08:15:00
3:35 AM,29.3,25.7,86,29.95,10.0,Calm,Calm,-,N/A,,Overcast,0,2014-01-16 08:35:00
3:55 AM,29.1,25.2,85,29.94,10.0,Calm,Calm,-,N/A,,Mostly Cloudy,0,2014-01-16 08:55:00
4:15 AM,28.2,25.0,88,29.94,10.0,Calm,Calm,-,N/A,,Clear,0,2014-01-16 09:15:00
4:35 AM,25.3,22.5,89,29.94,10.0,Calm,Calm,-,N/A,,Clear,0,2014-01-16 09:35:00
4:55 AM,25.0,22.6,91,29.95,7.0,Calm,Calm,-,N/A,,Mostly Cloudy,0,2014-01-16 09:55:00
5:15 AM,24.8,22.3,90,29.95,7.0,Calm,Calm,-,N/A,,Scattered Clouds,0,2014-01-16 10:15:00
5:35 AM,23.9,21.2,89,29.96,7.0,Calm,Calm,-,N/A,,Scattered Clouds,0,2014-01-16 10:35:00
5:55 AM,22.5,19.9,90,29.96,7.0,NW,4.6,-,N/A,,Clear,320,2014-01-16 10:55:00
6:15 AM,23.9,16.5,73,29.96,10.0,NNW,3.5,-,N/A,,Clear,340,2014-01-16 11:15:00
6:35 AM,23.4,17.2,77,29.96,10.0,NNW,3.5,-,N/A,,Clear,340,2014-01-16 11:35:00
6:55 AM,21.0,16.0,81,29.97,10.0,Calm,Calm,-,N/A,,Clear,0,2014-01-16 11:55:00
7:15 AM,20.7,17.1,86,29.97,10.0,Calm,Calm,-,N/A,,Clear,0,2014-01-16 12:15:00
7:35 AM,20.8,18.1,89,29.98,10.0,Calm,Calm,-,N/A,,Clear,0,2014-01-16 12:35:00
7:55 AM,20.8,18.1,89,29.98,10.0,Calm,Calm,-,N/A,,Clear,0,2014-01-16 12:55:00
8:15 AM,21.2,18.5,89,29.98,10.0,Calm,Calm,-,N/A,,Clear,0,2014-01-16 13:15:00
8:35 AM,20.3,17.6,89,29.98,10.0,Calm,Calm,-,N/A,,Clear,0,2014-01-16 13:35:00
8:55 AM,22.5,19.2,87,30.00,10.0,Calm,Calm,-,N/A,,Clear,0,2014-01-16 13:55:00
9:15 AM,24.1,19.4,82,30.01,10.0,Calm,Calm,-,N/A,,Clear,0,2014-01-16 14:15:00
9:35 AM,25.7,19.8,78,30.01,5.0,Calm,Calm,-,N/A,,Haze,0,2014-01-16 14:35:00
9:55 AM,27.0,19.6,74,30.01,10.0,SW,3.5,-,0.02,,Clear,220,2014-01-16 14:55:00
10:15 AM,27.5,18.1,68,30.01,10.0,South,3.5,-,N/A,,Clear,190,2014-01-16 15:15:00
10:35 AM,28.0,19.4,70,29.99,10.0,Calm,Calm,-,0.01,,Clear,0,2014-01-16 15:35:00
10:55 AM,28.4,17.6,64,29.98,10.0,Calm,Calm,-,0.03,,Clear,0,2014-01-16 15:55:00
11:15 AM,29.1,19.2,67,29.98,10.0,Calm,Calm,-,N/A,,Clear,0,2014-01-16 16:15:00
11:35 AM,29.3,19.4,67,29.96,10.0,SSW,3.5,-,N/A,,Clear,210,2014-01-16 16:35:00
11:55 AM,29.8,18.5,63,29.95,10.0,South,3.5,-,N/A,,Clear,190,2014-01-16 16:55:00
12:15 PM,30.2,18.7,62,29.94,10.0,SE,5.8,-,N/A,,Clear,130,2014-01-16 17:15:00
12:35 PM,31.1,19.4,62,29.93,10.0,SE,5.8,-,N/A,,Clear,140,2014-01-16 17:35:00
12:55 PM,31.8,18.3,57,29.92,10.0,SSE,8.1,-,N/A,,Clear,150,2014-01-16 17:55:00
1:15 PM,32.2,18.5,57,29.91,10.0,SSE,6.9,-,N/A,,Clear,150,2014-01-16 18:15:00
1:35 PM,32.9,18.0,54,29.91,10.0,South,5.8,-,N/A,,Clear,170,2014-01-16 18:35:00
1:55 PM,32.9,16.7,51,29.89,10.0,South,4.6,-,N/A,,Clear,170,2014-01-16 18:55:00
2:15 PM,34.0,17.4,51,29.88,10.0,SE,5.8,-,N/A,,Clear,140,2014-01-16 19:15:00
2:35 PM,34.5,17.2,49,29.88,10.0,SSE,5.8,-,N/A,,Clear,150,2014-01-16 19:35:00
2:55 PM,35.1,17.1,48,29.87,10.0,South,8.1,-,N/A,,Clear,170,2014-01-16 19:55:00
3:35 PM,35.8,16.0,45,29.86,10.0,SSE,5.8,-,N/A,,Clear,150,2014-01-16 20:35:00
3:55 PM,36.1,14.4,41,29.86,10.0,South,4.6,-,N/A,,Clear,190,2014-01-16 20:55:00
4:15 PM,36.3,15.6,43,29.86,10.0,South,4.6,-,N/A,,Clear,190,2014-01-16 21:15:00
4:35 PM,35.8,14.9,43,29.87,10.0,SW,6.9,-,N/A,,Clear,220,2014-01-16 21:35:00
4:55 PM,34.5,16.5,48,29.87,10.0,SW,4.6,-,N/A,,Clear,220,2014-01-16 21:55:00
5:15 PM,33.8,14.7,46,29.88,10.0,South,5.8,-,N/A,,Clear,190,2014-01-16 22:15:00
5:35 PM,32.9,14.9,48,29.89,10.0,South,5.8,-,N/A,,Clear,190,2014-01-16 22:35:00
5:55 PM,31.8,15.1,50,29.90,10.0,SSW,4.6,-,N/A,,Clear,200,2014-01-16 22:55:00
6:15 PM,32.0,14.0,48,29.91,10.0,South,5.8,-,N/A,,Clear,180,2014-01-16 23:15:00
6:35 PM,31.3,15.1,51,29.90,10.0,South,4.6,-,N/A,,Clear,170,2014-01-16 23:35:00
6:55 PM,32.0,13.6,47,29.91,10.0,SSW,5.8,-,N/A,,Clear,210,2014-01-16 23:55:00
7:15 PM,31.6,14.2,49,29.92,10.0,SSW,6.9,-,N/A,,Mostly Cloudy,200,2014-01-17 00:15:00
7:35 PM,30.0,14.5,53,29.92,10.0,SSW,3.5,-,N/A,,Scattered Clouds,200,2014-01-17 00:35:00
7:55 PM,29.3,14.7,55,29.92,10.0,Calm,Calm,-,N/A,,Scattered Clouds,0,2014-01-17 00:55:00
8:15 PM,28.8,15.8,58,29.92,10.0,Calm,Calm,-,N/A,,Mostly Cloudy,0,2014-01-17 01:15:00
8:35 PM,29.3,17.6,62,29.92,10.0,Calm,Calm,-,N/A,,Overcast,0,2014-01-17 01:35:00
8:55 PM,29.8,17.8,61,29.93,10.0,SW,4.6,-,N/A,,Overcast,220,2014-01-17 01:55:00
9:15 PM,32.0,15.1,50,29.92,10.0,South,3.5,-,N/A,,Overcast,190,2014-01-17 02:15:00
9:35 PM,32.0,15.3,50,29.92,10.0,South,3.5,-,N/A,,Overcast,180,2014-01-17 02:35:00
9:55 PM,31.1,18.5,60,29.92,10.0,SW,3.5,-,N/A,,Overcast,220,2014-01-17 02:55:00
10:15 PM,32.0,15.8,51,29.92,10.0,South,3.5,-,N/A,,Overcast,180,2014-01-17 03:15:00
10:35 PM,31.6,17.6,56,29.92,10.0,Calm,Calm,-,N/A,,Overcast,0,2014-01-17 03:35:00
10:55 PM,31.5,18.5,59,29.92,10.0,SW,3.5,-,N/A,,Overcast,220,2014-01-17 03:55:00
11:15 PM,31.6,16.7,54,29.91,10.0,SW,3.5,-,N/A,,Overcast,230,2014-01-17 04:15:00
11:35 PM,30.6,17.8,59,29.91,10.0,Calm,Calm,-,N/A,,Overcast,0,2014-01-17 04:35:00
11:55 PM,30.9,16.7,56,29.91,10.0,Calm,Calm,-,N/A,,Overcast,0,2014-01-17 04:55:00